sat.trackr.live / text

‹ back to catalog

QIANFAN-10

NORAD 60388 · 2024-140K

PAYLOAD ACTIVE UNKNOWN

§ Identity

Operator
Country
PRC
Launch date
2024-08-06
Launch site
TAISC
Launch vehicle
Mass (kg)
RCS (m²)

External: N2YO · Heavens-Above · Gunter

§ Orbital elements

Epoch: 2026-09-22T22:36:36.988992Z

Period
106.59 min
Inclination
88.9680°
Eccentricity
0.0016791
Mean motion
13.51022020 rev/d
Perigee alt
1,056.0 km
Apogee alt
1,081.0 km
Semi-major
7,446.6 km
B*
5.2697e-5
RAAN
269.2182°
Arg perigee
76.2701°
Mean anomaly
284.0318°
Rev number
10,583

§ Raw data

QIANFAN-101 60388U 24140K   26265.94209478  .00000046  00000+0  52697-4 0  99922 60388  88.9680 269.2182 0016791  76.2701 284.0318 13.51022020105832

JSON: /api/v1/satellites/60388 · /tle

For live sub-satellite position, see the globe view (requires WebGL).

§ Visibility from observer

Set your observer location to see the next 7 days of passes ≥ 10°. The values pass through the URL so the page stays shareable.

No JS? Fill the form by hand. The geolocation button needs JavaScript.